Starlink 30459

operational
NORAD ID: 57927 Int'l Des: 2023-147 Owner: SPXS Country: US Constellation: starlink
LEOCIRCULAR

Über Starlink 30459

Beschreibung wird geladen...

Live-Position

3D-Globus wird geladen...

Nächste Überflüge

Höhenverlauf

Altitude vs Time

uPlot chart will show altitude changes over time

Zweizeiliger Elementsatz

1 57927U 23147Q 25308.50003471 .00222032 00000-0 45484-2 0 9993
2 57927 42.9966 144.6713 0017026 273.5647 205.6322 15.44380382 5760
Epoch: 4. Nov. 2025 • Age: 5 hours

Aktueller Status

Höhe 447.5 km
Geschwindigkeit 7.64 km/s
Subsatellitenpunkt 42.51°N, 47.05°W
Startdatum 24. Sept. 2023
Alter 2.1 years
Typ internet

Technische Details

Klassifizierung Payload
Masse 730.00 kg
Trockenmasse 700.00 kg
Gesamtmasse 730.00 kg
Länge 0.30 m
Durchmesser 4.10 m
Spannweite 29.00 m
Form Box + pan
Hersteller SPXS
Bus-Typ Starlink V2M
Phasenstatus In Orbit
Besitzer/Staat SPXS/US

Große Konstellationen

Loading constellations...